{"data":{"norad_id":55401,"intl_designator":"2023-014L","name":"STARLINK-5076","alt_names":[],"object_type":"PAYLOAD","status":"ACTIVE","operator":null,"country":"US","launch_date":"2023-01-31","launch_site_code":"AFWTR","launch_vehicle":null,"mission":null,"orbit_class":"UNKNOWN","rcs_meters":null,"size_class":null,"mass_kg":null,"dimensions":null,"purposes":["comms"],"wikipedia_slug":null,"has_3d_model":false,"image_url":null,"decayed_at":null,"tle_current":{"epoch":"2026-05-24T15:22:03.791424Z","epoch_age_seconds":105890,"freshness":"FRESH","line1":"1 55401U 23014L   26144.64032166 -.00000104  00000+0 -94462-6 0  9997","line2":"2 55401  69.9994 232.8911 0003511 268.8242  91.2515 14.98330868183433","mean_motion":14.98330868,"eccentricity":0.0003511,"inclination_deg":69.9994,"raan_deg":232.8911,"arg_perigee_deg":268.8242,"mean_anomaly_deg":91.2515,"bstar":-9.4462e-7,"rev_number":18343,"period_min":96.106943449823,"perigee_km":569.61299494573,"apogee_km":574.4934185089,"semimajor_km":6950.1902067273,"source":"CELESTRAK","updated_at":"2026-05-25T13:38:17.794457Z"}}}